Tiempo atmosférico en la estación meteorológica de El Pinar, Depósito, Santa Cruz de Tenerife (948 m.)



Fecha
DESCASC
Temp. máxima en grados centígrados (hora)
DESCASC
Temp. mínima en grados centígrados (hora)
DESCASC
Temp. media en grados centígrados
DESCASC
Racha de viento máxima en m/sg (hora)
DESCASC
Velocidad máxima media en intervalos de 10 minutos(hora)
DESCASC
Precipitaciones diarias en mm
DESCASC
Precipitaciones de 00:00 a 06:00 en mm
DESCASC
Precipitaciones de 06:00 a 12:00 en mm
DESCASC
Precipitaciones de 12:00 a 18:00 en mm
DESCASC
Precipitaciones de 18:00 a 24:00 en mm
DESCASC
31-03-2020 15.6 (13:10) 8 (23:59) 11.8 9.44 (00:10) 3.89 (00:10) 0 0 0 0 0
29-03-2020 13.6 (16:30) 5.2 (00:00) 9.4 5 (14:00) 2.5 (13:50) 0 0 0 0 0
28-03-2020 15 (14:00) 6.5 (00:00) 10.8 8.89 (01:00) 3.89 (13:40) 0.2 0 0.2 0 0
27-03-2020 15.2 (13:30) 8.6 (00:00) 11.9 11.39 (23:40) 4.72 (21:30) 1 0.2 0 0.6 0.2
26-03-2020 12.6 (15:50) 8.3 (00:00) 10.5 6.67 (23:00) 2.5 (23:00) 15 13.8 0.6 0 0.6
25-03-2020 13.9 (11:40) 9 (00:00) 11.4 6.39 (11:40) 3.33 (11:40) 0.4 0.2 0 0.2 0
24-03-2020 14.6 (11:20) 9 (00:00) 11.8 10 (06:30) 4.44 (06:30) 2.4 2 0.4 0 0
23-03-2020 13.4 (13:50) 8.2 (00:00) 10.8 18.06 (02:00) 6.94 (02:00) 6.4 5.4 0.8 0.2 0
22-03-2020 13.5 (12:50) 8.4 (06:40) 10.9 17.5 (23:50) 6.67 (23:00) 28.8 0.2 3.4 20.2 5
21-03-2020 14.3 (14:50) 7.8 (00:00) 11.1 7.22 (12:40) 3.33 (13:30) 0 0 0 0 0
20-03-2020 16.7 (14:40) 9.5 (00:00) 13.1 10.28 (09:00) 4.17 (08:20) 0 0 0 0 0
19-03-2020 14.6 (11:00) 9.2 (00:00) 11.9 14.17 (10:20) 4.44 (10:20) 0 0 0 0 0
18-03-2020 14.9 (14:50) 8.1 (00:00) 11.5 13.61 (11:40) 5 (18:30) 0.8 0.4 0.2 0.2 0
17-03-2020 13.3 (16:40) 8.1 (00:00) 10.7 11.39 (11:10) 5 (23:00) 1.2 0 0.6 0 0.6
16-03-2020 14.9 (15:10) 9.2 (00:00) 12 13.33 (17:40) 5.28 (17:40) 0.4 0.4 0 0 0
15-03-2020 13.7 (16:10) 9.3 (00:00) 11.5 11.39 (20:30) 3.89 (16:00) 0 0 0 0 0
14-03-2020 16.6 (14:00) 9.7 (00:00) 13.2 6.67 (14:50) 3.33 (17:30) 0 0 0 0 0
13-03-2020 21.5 (11:20) 11.7 (23:20) 16.6 6.39 (13:20) 3.06 (12:50) 0 0 0 0 0
12-03-2020 22.7 (12:40) 13.2 (00:00) 18 7.5 (10:30) 3.89 (12:50) 0 0 0 0 0
11-03-2020 23.1 (13:20) 12.3 (00:00) 17.7 5.83 (11:20) 3.33 (15:00) 0 0 0 0 0
10-03-2020 21.6 (14:00) 15.6 (00:00) 18.6 10.28 (00:50) 3.89 (00:30) 0 0 0 0 0
09-03-2020 20.1 (13:10) 17 (00:00) 18.6 16.67 (08:50) 5.28 (12:30) 0 0 0 0 0
08-03-2020 22 (10:20) 11.4 (00:00) 16.7 14.17 (22:40) 6.39 (23:10) 0 0 0 0 0
07-03-2020 21.1 (17:50) 7.1 (00:00) 14.1 7.22 (09:30) 3.33 (12:30) 0 0 0 0 0
06-03-2020 16.3 (17:20) 8.9 (00:00) 12.6 14.72 (01:50) 5.83 (01:10) 0 0 0 0 0
05-03-2020 22.3 (09:10) 12 (00:00) 17.1 11.67 (23:40) 5 (23:59) 0 0 0 0 0
04-03-2020 25.2 (14:10) 12.3 (07:30) 18.8 5.56 (11:50) 3.33 (11:10) 0 0 0 0 0
03-03-2020 23.2 (14:10) 8.8 (00:00) 16 6.39 (17:30) 3.33 (11:40) 0 0 0 0 0
02-03-2020 17.9 (16:20) 9.6 (00:00) 13.8 7.22 (13:20) 3.61 (14:00) 0 0 0 0 0

Gráficas

Temp. máximas Temp. mínimas Temp. medias Precipitaciones Rachas de viento máximas Velocidades máximas media en intervalos de 10 minutos

Datos horarios

Fecha y hora oficial Temperatura (ºC) Velocidad del viento (km/h) Dirección del viento Racha (km/h) Dirección de racha Precipitación (mm) Presión (hPa) Tendencia (hPa) Humedad (%)
2020-03-31 23:00:00 8.5 6 Noroeste 9 Noroeste 0 -- -- 92
2020-03-31 22:00:00 9.2 4 Noroeste 7 Norte 0 -- -- 94
2020-03-31 21:00:00 11.5 0 Calma 8 Nordeste 0 -- -- 95
2020-03-31 20:00:00 12.5 2 Este 9 Sudeste 0 -- -- 98
2020-03-31 19:00:00 13.2 5 Sudeste 9 Sudeste 0 -- -- 95
2020-03-31 18:00:00 13.9 5 Sudeste 13 Sudeste 0 -- -- 93
2020-03-31 17:00:00 13.8 5 Sudeste 12 Sudeste 0 -- -- 94
2020-03-31 16:00:00 13.5 7 Sudeste 13 Sur 0 -- -- 94
2020-03-31 15:00:00 14 5 Este 13 Sudeste 0 -- -- 92
2020-03-31 14:00:00 14.3 6 Sudeste 15 Sudeste 0 -- -- 90
2020-03-31 13:00:00 15.3 9 Sudeste 15 Sudeste 0 -- -- 83
2020-03-31 12:00:00 14.2 7 Este 17 Sur 0 -- -- 87
2020-03-31 11:00:00 13.9 7 Sudeste 14 Sudeste 0 -- -- 91
2020-03-31 10:00:00 12.6 5 Sudeste 8 Sudeste 0 -- -- 97
2020-03-31 09:00:00 10.8 0 Calma 6 Sudoeste 0 -- -- 98
2020-03-31 08:00:00 9 0 Calma 7 Noroeste 0 -- -- 96
2020-03-31 07:00:00 9.5 4 Noroeste 15 Oeste 0 -- -- 91
2020-03-31 06:00:00 10.9 3 Norte 15 Noroeste 0 -- -- 82
2020-03-31 05:00:00 11.3 8 Noroeste 31 Noroeste 0 -- -- 82
2020-03-31 04:00:00 11.3 4 Noroeste 13 Oeste 0 -- -- 96
2020-03-31 03:00:00 11.4 2 Nordeste 5 Nordeste 0 -- -- 95
2020-03-31 02:00:00 11.4 4 Sudeste 13 Sur 0 -- -- 93
2020-03-31 01:00:00 11.4 4 Sudeste 34 Noroeste 0 -- -- 90
2020-03-31 00:00:00 12.1 10 Noroeste 26 Noroeste 0 -- -- 89
2020-03-30 23:00:00 11.3 4 Sudeste 10 Sudeste 0 -- -- 91
2020-03-30 22:00:00 12.1 6 Sudeste 19 Noroeste 0 -- -- 88
2020-03-30 21:00:00 12.2 6 Oeste 19 Norte 0 -- -- 89
2020-03-30 20:00:00 13.5 5 Sudeste 17 Noroeste 0 -- -- 89
2020-03-30 19:00:00 14.3 2 Sur 11 Este 0 -- -- 88
2020-03-30 18:00:00 14.6 6 Sudeste 12 Norte 0 -- -- 86
2020-03-30 17:00:00 14 5 Este 17 Sudeste 0 -- -- 88
2020-03-30 16:00:00 15.8 8 Sudeste 19 Este 0 -- -- 80
2020-03-30 15:00:00 15.6 10 Sudeste 17 Sudeste 0 -- -- 79
2020-03-30 14:00:00 15.9 10 Sudeste 20 Sur 0 -- -- 77
2020-03-30 13:00:00 15.5 9 Sudeste 18 Sur 0 -- -- 79
2020-03-30 12:00:00 15.5 9 Sudeste 15 Sudeste 0 -- -- 79
2020-03-30 11:00:00 13.8 7 Sudeste 12 Este 0 -- -- 85
2020-03-30 10:00:00 13.3 5 Este 13 Sudeste 0 -- -- 85
2020-03-30 09:00:00 9.9 3 Norte 8 Norte 0 -- -- 86
2020-03-30 08:00:00 7.7 5 Norte 8 Norte 0 -- -- 87
2020-03-30 07:00:00 7.7 5 Norte 8 Norte 0 -- -- 86
2020-03-30 06:00:00 7.9 4 Norte 8 Noroeste 0 -- -- 85
2020-03-30 05:00:00 8.1 5 Norte 8 Noroeste 0 -- -- 84
2020-03-30 04:00:00 8.3 4 Norte 8 Noroeste 0 -- -- 82
2020-03-30 03:00:00 8.3 4 Norte 7 Norte 0 -- -- 80
2020-03-30 02:00:00 8.4 3 Norte 9 Noroeste 0 -- -- 74
2020-03-30 01:00:00 8.2 3 Norte 7 Noroeste 0 -- -- 71
2020-03-30 00:00:00 8 6 Norte 8 Norte 0 -- -- 71
2020-03-29 23:00:00 7.7 3 Norte 8 Noroeste 0 -- -- 74
2020-03-29 22:00:00 8 5 Norte 8 Norte 0 -- -- 75
2020-03-29 21:00:00 11 2 Norte 8 Sur 0 -- -- 89
2020-03-29 20:00:00 11.8 3 Sudeste 9 Sudeste 0 -- -- 92
2020-03-29 19:00:00 12.1 5 Este 11 Este 0 -- -- 91
2020-03-29 18:00:00 13.3 7 Sudeste 12 Sudeste 0 -- -- 88
2020-03-29 17:00:00 13.6 8 Sudeste 14 Sur 0 -- -- 87
2020-03-29 16:00:00 13.3 8 Sur 13 Sudeste 0 -- -- 87
2020-03-29 15:00:00 12.3 5 Sudeste 12 Sudeste 0 -- -- 93
2020-03-29 14:00:00 12.6 8 Sudeste 18 Este 0 -- -- 90
2020-03-29 13:00:00 12.6 6 Sur 12 Sur 0 -- -- 90
2020-03-29 12:00:00 12.6 6 Sudeste 11 Sur 0 -- -- 89
2020-03-29 11:00:00 12.4 6 Sudeste 10 Sudeste 0 -- -- 88
2020-03-29 10:00:00 12.1 3 Sudeste 10 Sur 0 -- -- 77
2020-03-29 09:00:00 7.3 0 Calma 9 Norte 0 -- -- 90
2020-03-29 08:00:00 5.5 6 Noroeste 14 Noroeste 0 -- -- 91
2020-03-29 07:00:00 5.3 5 Noroeste 9 Noroeste 0 -- -- 91
2020-03-29 06:00:00 5.7 5 Norte 10 Noroeste 0 -- -- 90
2020-03-29 05:00:00 6 8 Noroeste 12 Noroeste 0 -- -- 91
2020-03-29 04:00:00 6 5 Noroeste 9 Noroeste 0 -- -- 92
2020-03-29 00:00:00 7 5 Norte 10 Noroeste 0 -- -- 91
2020-03-28 23:00:00 6.5 5 Norte 9 Noroeste 0 -- -- 89
2020-03-28 22:00:00 6.7 5 Noroeste 8 Norte 0 -- -- 89
2020-03-28 21:00:00 7.6 5 Norte 8 Norte 0 -- -- 88
2020-03-28 20:00:00 9.5 4 Norte 7 Norte 0 -- -- 87
2020-03-28 19:00:00 11.2 2 Sur 10 Sudeste 0 -- -- 87
2020-03-28 18:00:00 11.9 4 Sur 13 Sur 0 -- -- 85
2020-03-28 17:00:00 11.8 5 Sudeste 16 Sur 0 -- -- 83
2020-03-28 16:00:00 13.4 6 Sur 19 Sudeste 0 -- -- 75
2020-03-28 15:00:00 14.8 13 Sudeste 23 Sudeste 0 -- -- 68
2020-03-28 14:00:00 15 12 Sudeste 23 Sudeste 0 -- -- 62
2020-03-28 13:00:00 14.1 12 Sudeste 22 Sudeste 0 -- -- 69
2020-03-28 12:00:00 13.4 8 Sudeste 21 Sudeste 0 -- -- 75
2020-03-28 11:00:00 13.7 10 Sudeste 18 Sudeste 0 -- -- 68
2020-03-28 10:00:00 12.8 5 Sudeste 22 Norte 0.2 -- -- 71
2020-03-28 09:00:00 11.4 6 Nordeste 19 Oeste 0 -- -- 78
2020-03-28 08:00:00 9.7 2 Sudoeste 19 Este 0 -- -- 83
2020-03-28 07:00:00 8.9 3 Norte 15 Sur 0 -- -- 90
2020-03-28 06:00:00 8.9 8 Nordeste 23 Este 0 -- -- 88
2020-03-28 05:00:00 8.9 5 Nordeste 21 Oeste 0 -- -- 89
2020-03-28 04:00:00 8.7 6 Oeste 24 Noroeste 0 -- -- 86
2020-03-28 03:00:00 8.9 6 Oeste 20 Oeste 0 -- -- 83
2020-03-28 02:00:00 8.9 4 Nordeste 27 Noroeste 0 -- -- 89
2020-03-28 01:00:00 8.8 10 Noroeste 32 Noroeste 0 -- -- 84
2020-03-28 00:00:00 9.1 9 Noroeste 41 Noroeste 0 -- -- 85
2020-03-27 23:00:00 9 14 Noroeste 39 Noroeste 0 -- -- 89
2020-03-27 22:00:00 8.9 15 Noroeste 41 Noroeste 0 -- -- 88
2020-03-27 21:00:00 8.8 13 Noroeste 35 Norte 0 -- -- 88
2020-03-27 20:00:00 9.1 9 Norte 30 Noroeste 0 -- -- 88
2020-03-27 19:00:00 10.1 8 Norte 31 Oeste 0.2 -- -- 89
2020-03-27 18:00:00 10.9 10 Norte 30 Noroeste 0.6 -- -- 87
2020-03-27 17:00:00 12.5 8 Noroeste 26 Noroeste 0 -- -- 76
2020-03-27 16:00:00 12.9 9 Oeste 24 Oeste 0 -- -- 71
2020-03-27 15:00:00 13.9 8 Oeste 26 Oeste 0 -- -- 70
2020-03-27 14:00:00 15 12 Noroeste 33 Noroeste 0 -- -- 68
2020-03-27 13:00:00 14.6 9 Oeste 22 Oeste 0 -- -- 67
2020-03-27 12:00:00 13.8 10 Noroeste 22 Noroeste 0 -- -- 72
2020-03-27 11:00:00 13.3 8 Noroeste 23 Norte 0 -- -- 75
2020-03-27 10:00:00 12.2 7 Sudeste 22 Norte 0 -- -- 82
2020-03-27 09:00:00 10.4 4 Este 12 Sudeste 0 -- -- 91
2020-03-27 08:00:00 10.2 4 Sur 12 Nordeste 0 -- -- 93
2020-03-27 07:00:00 9.1 2 Nordeste 9 Sur 0 -- -- 92
2020-03-27 06:00:00 9.5 3 Sudeste 5 Nordeste 0 -- -- 95
2020-03-27 05:00:00 9.5 0 Calma 12 Sur 0 -- -- 92
2020-03-27 04:00:00 9.5 4 Sur 13 Sudeste 0 -- -- 91
2020-03-27 03:00:00 9.6 0 Calma 19 Norte 0 -- -- 92
2020-03-27 02:00:00 9.4 4 Sur 21 Noroeste 0 -- -- 90
2020-03-27 01:00:00 9.3 7 Noroeste 21 Norte 0.2 -- -- 94
2020-03-27 00:00:00 9.8 4 Noroeste 19 Noroeste 0.4 -- -- 94
2020-03-26 23:00:00 9.7 9 Noroeste 24 Noroeste 0 -- -- 89
2020-03-26 22:00:00 10 3 Sudoeste 13 Nordeste 0 -- -- 91
2020-03-26 21:00:00 10 4 Nordeste 17 Noroeste 0.2 -- -- 92
2020-03-26 20:00:00 10.5 0 Calma 13 Nordeste 0 -- -- 89
2020-03-26 19:00:00 11.1 2 Sur 12 Oeste 0 -- -- 91
2020-03-26 18:00:00 11.4 5 Noroeste 12 Noroeste 0 -- -- 79
2020-03-26 17:00:00 11.4 3 Sudeste 12 Este 0 -- -- 90
2020-03-26 16:00:00 12.3 7 Sudeste 17 Este 0 -- -- 91
2020-03-26 15:00:00 11.8 5 Oeste 18 Oeste 0 -- -- 85
2020-03-26 14:00:00 11.3 5 Sudeste 17 Sur 0 -- -- 93
2020-03-26 13:00:00 11.2 4 Este 13 Este 0 -- -- 94
2020-03-26 12:00:00 11 4 Este 9 Este 0.4 -- -- 96
2020-03-26 11:00:00 10.9 5 Este 13 Nordeste 0 -- -- 96
2020-03-26 10:00:00 10.2 5 Nordeste 12 Nordeste 0 -- -- 90
2020-03-26 09:00:00 9.9 4 Sudeste 8 Sudeste 0 -- -- 99
2020-03-26 08:00:00 8.7 3 Norte 7 Norte 0 -- -- 99
2020-03-26 07:00:00 8.6 3 Norte 15 Norte 0.2 -- -- 99
2020-03-26 06:00:00 8.3 5 Norte 11 Noroeste 0 -- -- 98
2020-03-26 05:00:00 8.7 7 Noroeste 14 Noroeste 10.8 -- -- 97
2020-03-26 04:00:00 9.5 2 Noroeste 11 Noroeste 3 -- -- 95
2020-03-26 03:00:00 9.7 2 Nordeste 10 Norte 0 -- -- 93
2020-03-26 02:00:00 9.4 2 Nordeste 10 Sudeste 0 -- -- 88
2020-03-26 01:00:00 9.6 3 Este 11 Nordeste 0 -- -- 84
2020-03-26 00:00:00 9.8 3 Norte 15 Norte 0 -- -- 90
2020-03-25 23:00:00 9.7 5 Nordeste 10 Este 0 -- -- 94
2020-03-25 22:00:00 9.4 3 Norte 8 Norte 0 -- -- 90
2020-03-25 21:00:00 9.7 3 Norte 8 Norte 0 -- -- 91
2020-03-25 20:00:00 10.3 0 Calma 6 Este 0 -- -- 91
2020-03-25 19:00:00 10.5 0 Calma 9 Nordeste 0 -- -- 88
2020-03-25 18:00:00 10.4 5 Norte 12 Norte 0 -- -- 86
2020-03-25 17:00:00 10.7 3 Nordeste 16 Sudeste 0.2 -- -- 93
2020-03-25 16:00:00 11.3 7 Sudeste 16 Este 0 -- -- 91
2020-03-25 15:00:00 12.3 9 Este 18 Sudeste 0 -- -- 80
2020-03-25 14:00:00 11.8 7 Este 15 Sudeste 0 -- -- 78
2020-03-25 13:00:00 11.8 7 Este 20 Este 0 -- -- 80
2020-03-25 12:00:00 12.9 9 Este 23 Este 0 -- -- 72
2020-03-25 11:00:00 12.5 10 Sudeste 18 Este 0 -- -- 75
2020-03-25 10:00:00 11.1 3 Este 13 Nordeste 0 -- -- 76
2020-03-25 09:00:00 10.6 4 Este 13 Este 0 -- -- 81
2020-03-25 08:00:00 9.3 6 Norte 13 Noroeste 0 -- -- 86
2020-03-25 07:00:00 9 6 Norte 12 Norte 0 -- -- 88
2020-03-25 06:00:00 9.4 7 Noroeste 20 Norte 0 -- -- 82
2020-03-25 05:00:00 9.3 8 Norte 17 Norte 0 -- -- 84
2020-03-25 04:00:00 9.1 3 Nordeste 14 Este 0 -- -- 88
2020-03-25 03:00:00 9.1 6 Norte 13 Norte 0 -- -- 90
2020-03-25 02:00:00 9.7 3 Noroeste 17 Noroeste 0.2 -- -- 94
2020-03-25 01:00:00 10 2 Oeste 22 Noroeste 0 -- -- 88
2020-03-25 00:00:00 9.7 6 Noroeste 18 Norte 0 -- -- 83
2020-03-24 23:00:00 9.8 9 Noroeste 23 Noroeste 0 -- -- 86
2020-03-24 22:00:00 9.8 9 Noroeste 25 Nordeste 0 -- -- 85
2020-03-24 21:00:00 10.2 6 Noroeste 29 Norte 0 -- -- 90
2020-03-24 20:00:00 10.2 9 Noroeste 26 Noroeste 0 -- -- 83
2020-03-24 19:00:00 10.8 7 Norte 29 Noroeste 0 -- -- 76
2020-03-24 18:00:00 12.6 6 Sudeste 23 Este 0 -- -- 73
2020-03-24 17:00:00 13 8 Noroeste 21 Oeste 0 -- -- 71
2020-03-24 16:00:00 12.7 9 Oeste 23 Oeste 0 -- -- 70
2020-03-24 15:00:00 12.6 8 Noroeste 21 Norte 0 -- -- 71
2020-03-24 14:00:00 13.2 8 Noroeste 22 Oeste 0 -- -- 73
2020-03-24 13:00:00 14.1 10 Noroeste 18 Norte 0 -- -- 71
2020-03-24 12:00:00 14.4 9 Sudoeste 22 Noroeste 0 -- -- 77
2020-03-24 11:00:00 13.6 6 Nordeste 18 Noroeste 0 -- -- 72
2020-03-24 10:00:00 11.3 4 Noroeste 23 Noroeste 0 -- -- 85
2020-03-24 09:00:00 10.4 6 Norte 24 Nordeste 0.2 -- -- 89
2020-03-24 08:00:00 10.2 5 Norte 26 Noroeste 0 -- -- 93
2020-03-24 07:00:00 9.4 13 Noroeste 36 Noroeste 0.2 -- -- 95
2020-03-24 06:00:00 9.5 9 Noroeste 28 Noroeste 0.4 -- -- 94
2020-03-24 05:00:00 9 8 Norte 20 Norte 0.8 -- -- 94
2020-03-24 04:00:00 9.6 3 Norte 25 Norte 0.4 -- -- 93
2020-03-24 03:00:00 10 7 Noroeste 24 Oeste 0.2 -- -- 92
2020-03-24 02:00:00 9.7 4 Nordeste 22 Nordeste 0.2 -- -- 89
2020-03-24 01:00:00 10.2 8 Norte 34 Oeste 0 -- -- 86
2020-03-24 00:00:00 10 12 Norte 42 Norte 0 -- -- 87
2020-03-23 23:00:00 9.2 11 Norte 30 Norte 0 -- -- 87
2020-03-23 22:00:00 9.8 10 Norte 47 Norte 0 -- -- 90
2020-03-23 21:00:00 9.9 11 Nordeste 30 Norte 0 -- -- 92
2020-03-23 20:00:00 9.9 6 Norte 44 Nordeste 0 -- -- 86
2020-03-23 19:00:00 10.5 12 Norte 38 Norte 0 -- -- 91
2020-03-23 18:00:00 11.9 9 Norte 43 Norte 0 -- -- 72
2020-03-23 17:00:00 11.2 14 Norte 42 Norte 0.2 -- -- 83
2020-03-23 16:00:00 13 11 Norte 47 Norte 0 -- -- 71
2020-03-23 15:00:00 11.7 21 Norte 55 Noroeste 0 -- -- 83
2020-03-23 14:00:00 13 9 Nordeste 43 Noroeste 0 -- -- 70
2020-03-23 13:00:00 13.3 14 Norte 40 Noroeste 0 -- -- 75
2020-03-23 12:00:00 11.9 14 Norte 49 Noroeste 0 -- -- 82
2020-03-23 11:00:00 11 16 Norte 53 Noroeste 0 -- -- 91
2020-03-23 10:00:00 10.2 20 Norte 56 Norte 0 -- -- 95
2020-03-23 09:00:00 9.5 18 Norte 53 Oeste 0.8 -- -- 97
2020-03-23 08:00:00 9 16 Norte 54 Nordeste 0 -- -- 95
2020-03-23 07:00:00 8.6 13 Norte 51 Norte 0 -- -- 95
2020-03-23 06:00:00 8.2 17 Noroeste 59 Norte 0.2 -- -- 93
2020-03-23 05:00:00 8.5 21 Norte 63 Norte 0.8 -- -- 97
2020-03-23 04:00:00 8.7 14 Noroeste 55 Norte 1.8 -- -- 98
2020-03-23 03:00:00 8.7 19 Noroeste 64 Noroeste 1.2 -- -- 96
2020-03-23 02:00:00 8.5 25 Noroeste 65 Oeste 0.2 -- -- 96
2020-03-23 01:00:00 8.3 17 Noroeste 63 Norte 1.2 -- -- 95
2020-03-23 00:00:00 8.9 12 Noroeste 63 Noroeste 1.8 -- -- 96
2020-03-22 23:00:00 8.9 24 Noroeste 52 Noroeste 1.2 -- -- 97
2020-03-22 22:00:00 8.6 15 Noroeste 53 Noroeste 0 -- -- 97
2020-03-22 21:00:00 8.8 20 Noroeste 56 Noroeste 0.8 -- -- 96
2020-03-22 20:00:00 8.9 22 Noroeste 56 Noroeste 0.2 -- -- 95
2020-03-22 19:00:00 9 18 Noroeste 56 Noroeste 1 -- -- 96
2020-03-22 18:00:00 9.3 16 Noroeste 54 Noroeste 1.8 -- -- 97
2020-03-22 17:00:00 10.2 8 Noroeste 45 Noroeste 12.8 -- -- 94
2020-03-22 16:00:00 11.2 8 Sudeste 36 Norte 5.6 -- -- 91
2020-03-22 15:00:00 12.2 11 Noroeste 41 Norte 0 -- -- 78
2020-03-22 14:00:00 12.3 14 Norte 42 Norte 0 -- -- 79
2020-03-22 13:00:00 13.5 14 Norte 33 Noroeste 0 -- -- 71
2020-03-22 12:00:00 12.2 8 Norte 32 Norte 0 -- -- 75
2020-03-22 11:00:00 10 6 Sur 26 Nordeste 0.2 -- -- 91
2020-03-22 10:00:00 9.7 9 Nordeste 37 Norte 0 -- -- 91
2020-03-22 09:00:00 8.6 12 Norte 46 Nordeste 1.8 -- -- 96
2020-03-22 08:00:00 8.6 6 Nordeste 23 Nordeste 0.8 -- -- 96
2020-03-22 07:00:00 8.6 7 Norte 35 Norte 0.6 -- -- 95
2020-03-22 06:00:00 8.8 10 Este 26 Norte 0 -- -- 92
2020-03-22 05:00:00 8.8 9 Norte 30 Sudoeste 0.2 -- -- 90
2020-03-22 04:00:00 9.1 6 Norte 18 Nordeste 0 -- -- 87
2020-03-22 03:00:00 9 5 Sudeste 20 Sudeste 0 -- -- 85
2020-03-22 02:00:00 8.9 5 Nordeste 16 Este 0 -- -- 86
2020-03-22 01:00:00 9.1 3 Nordeste 19 Este 0 -- -- 84
2020-03-22 00:00:00 9.1 8 Este 22 Este 0 -- -- 83
2020-03-21 23:00:00 9.2 10 Este 24 Este 0 -- -- 82
2020-03-21 22:00:00 9.5 9 Este 24 Este 0 -- -- 83
2020-03-21 21:00:00 9.6 8 Este 18 Sudeste 0 -- -- 81
2020-03-21 20:00:00 9.8 8 Este 20 Este 0 -- -- 84
2020-03-21 19:00:00 10.4 9 Este 21 Nordeste 0 -- -- 73
2020-03-21 18:00:00 12.2 9 Nordeste 26 Este 0 -- -- 63
2020-03-21 17:00:00 13 7 Nordeste 25 Este 0 -- -- 60
2020-03-21 16:00:00 14.2 10 Noroeste 26 Norte 0 -- -- 57
2020-03-21 15:00:00 14.3 7 Nordeste 24 Noroeste 0 -- -- 57
2020-03-21 14:00:00 13.7 9 Norte 25 Nordeste 0 -- -- 58
2020-03-21 13:00:00 13.4 9 Noroeste 26 Este 0 -- -- 59
2020-03-21 12:00:00 12.4 7 Noroeste 21 Noroeste 0 -- -- 65
2020-03-21 11:00:00 11.8 8 Noroeste 20 Norte 0 -- -- 69
2020-03-21 10:00:00 12.8 8 Norte 24 Norte 0 -- -- 64
2020-03-21 09:00:00 10.8 7 Nordeste 17 Norte 0 -- -- 71
2020-03-21 08:00:00 9 3 Nordeste 12 Norte 0 -- -- 83
2020-03-21 07:00:00 8.3 4 Norte 21 Noroeste 0 -- -- 86
2020-03-21 06:00:00 8 8 Norte 20 Norte 0 -- -- 84
2020-03-21 05:00:00 8.6 6 Norte 16 Noroeste 0 -- -- 88
2020-03-21 04:00:00 9.4 5 Norte 21 Nordeste 0 -- -- 90
2020-03-21 03:00:00 9.5 8 Nordeste 17 Este 0 -- -- 86
2020-03-21 02:00:00 9.7 5 Norte 16 Nordeste 0 -- -- 86
2020-03-21 01:00:00 9.5 4 Norte 22 Norte 0 -- -- 84
2020-03-21 00:00:00 9.5 9 Noroeste 22 Oeste 0 -- -- 85
2020-03-20 23:00:00 9.9 10 Noroeste 35 Noroeste 0 -- -- 83
2020-03-20 22:00:00 9.9 4 Sudeste 20 Norte 0 -- -- 83
2020-03-20 21:00:00 10.6 7 Norte 19 Noroeste 0 -- -- 81
2020-03-20 20:00:00 11.3 5 Norte 15 Norte 0 -- -- 78
2020-03-20 19:00:00 11.9 8 Norte 22 Nordeste 0 -- -- 69
2020-03-20 18:00:00 13.9 9 Nordeste 22 Este 0 -- -- 60
2020-03-20 17:00:00 15.3 12 Norte 29 Norte 0 -- -- 49
2020-03-20 16:00:00 16.3 6 Este 31 Norte 0 -- -- 51
2020-03-20 15:00:00 16.7 12 Nordeste 26 Este 0 -- -- 46
2020-03-20 14:00:00 16.2 9 Norte 29 Noroeste 0 -- -- 59
2020-03-20 13:00:00 14.5 7 Sudeste 28 Norte 0 -- -- 71
2020-03-20 12:00:00 13.7 6 Nordeste 19 Norte 0 -- -- 72
2020-03-20 11:00:00 13.6 9 Norte 31 Norte 0 -- -- 72
2020-03-20 10:00:00 14.2 9 Nordeste 35 Norte 0 -- -- 66
2020-03-20 09:00:00 12.6 14 Norte 37 Noroeste 0 -- -- 75
2020-03-20 08:00:00 11.1 9 Norte 34 Noroeste 0 -- -- 78
2020-03-20 07:00:00 10.5 9 Norte 34 Noroeste 0 -- -- 84
2020-03-20 06:00:00 10.4 12 Noroeste 29 Norte 0 -- -- 87
2020-03-20 05:00:00 10.5 6 Norte 32 Oeste 0 -- -- 85
2020-03-20 04:00:00 10.9 7 Este 23 Este 0 -- -- 87
2020-03-20 03:00:00 11.3 6 Nordeste 29 Este 0 -- -- 86
2020-03-20 02:00:00 11.2 7 Nordeste 26 Norte 0 -- -- 87
2020-03-20 01:00:00 10.8 9 Nordeste 33 Este 0 -- -- 83
2020-03-20 00:00:00 11 8 Nordeste 34 Norte 0 -- -- 82
2020-03-19 23:00:00 11.1 11 Norte 29 Este 0 -- -- 81
2020-03-19 22:00:00 11.4 11 Nordeste 37 Norte 0 -- -- 80
2020-03-19 21:00:00 11.2 10 Nordeste 28 Norte 0 -- -- 80
2020-03-19 20:00:00 11.2 10 Nordeste 29 Nordeste 0 -- -- 82
2020-03-19 19:00:00 11.9 10 Norte 32 Norte 0 -- -- 77
2020-03-19 18:00:00 12.6 11 Norte 36 Este 0 -- -- 80
2020-03-19 17:00:00 13.6 9 Nordeste 32 Noroeste 0 -- -- 78
2020-03-19 16:00:00 14.1 11 Norte 34 Noroeste 0 -- -- 71
2020-03-19 15:00:00 14.4 10 Norte 35 Norte 0 -- -- 73
2020-03-19 14:00:00 14.2 12 Nordeste 39 Norte 0 -- -- 76
2020-03-19 13:00:00 14 11 Nordeste 43 Norte 0 -- -- 71
2020-03-19 12:00:00 13.4 13 Nordeste 38 Norte 0 -- -- 75
2020-03-19 11:00:00 14.6 13 Norte 51 Noroeste 0 -- -- 65
2020-03-19 10:00:00 13.3 10 Norte 40 Norte 0 -- -- 69
2020-03-19 09:00:00 11.4 14 Norte 40 Norte 0 -- -- 76
2020-03-19 08:00:00 11.1 14 Nordeste 37 Nordeste 0 -- -- 80
2020-03-19 07:00:00 10.2 6 Norte 31 Este 0 -- -- 92
2020-03-19 06:00:00 10.1 12 Nordeste 32 Norte 0 -- -- 86
2020-03-19 05:00:00 9.8 7 Nordeste 35 Norte 0 -- -- 88
2020-03-19 04:00:00 9.6 12 Norte 40 Nordeste 0 -- -- 91
2020-03-19 03:00:00 9.3 12 Nordeste 35 Nordeste 0 -- -- 83
2020-03-19 02:00:00 9.7 11 Norte 40 Noroeste 0 -- -- 84
2020-03-19 01:00:00 9.9 15 Norte 42 Norte 0 -- -- 87
2020-03-19 00:00:00 10.2 7 Nordeste 27 Este 0 -- -- 82
2020-03-18 23:00:00 10 8 Este 30 Nordeste 0 -- -- 86
2020-03-18 22:00:00 9.2 8 Nordeste 22 Este 0 -- -- 82
2020-03-18 21:00:00 9 5 Nordeste 23 Noroeste 0 -- -- 78
2020-03-18 20:00:00 9.5 8 Este 26 Norte 0 -- -- 80
2020-03-18 19:00:00 10.4 11 Nordeste 39 Este 0 -- -- 78
2020-03-18 18:00:00 12.5 10 Nordeste 30 Nordeste 0 -- -- 69
2020-03-18 17:00:00 13 12 Nordeste 41 Norte 0 -- -- 68
2020-03-18 16:00:00 14 14 Nordeste 35 Este 0 -- -- 58
2020-03-18 15:00:00 14.7 10 Este 32 Norte 0 -- -- 55
2020-03-18 14:00:00 14.1 13 Nordeste 36 Nordeste 0 -- -- 59
2020-03-18 13:00:00 13 13 Nordeste 40 Nordeste 0.2 -- -- 64
2020-03-18 12:00:00 11.8 15 Nordeste 49 Norte 0 -- -- 72
2020-03-18 11:00:00 10.3 10 Nordeste 36 Norte 0 -- -- 85
2020-03-18 10:00:00 9.9 11 Nordeste 35 Nordeste 0 -- -- 92
2020-03-18 09:00:00 9.4 14 Nordeste 34 Nordeste 0 -- -- 89
2020-03-18 08:00:00 8.7 10 Este 25 Este 0 -- -- 95
2020-03-18 07:00:00 8.7 9 Nordeste 30 Este 0.2 -- -- 96
2020-03-18 06:00:00 8.1 11 Nordeste 35 Nordeste 0.2 -- -- 94
2020-03-18 05:00:00 8.3 10 Nordeste 35 Este 0.2 -- -- 96
2020-03-18 04:00:00 8.5 10 Este 39 Este 0 -- -- 95
2020-03-18 03:00:00 8.6 10 Nordeste 33 Este 0 -- -- 93
2020-03-18 02:00:00 8.4 11 Nordeste 35 Nordeste 0 -- -- 90
2020-03-18 01:00:00 8.7 14 Nordeste 40 Este 0 -- -- 94
2020-03-18 00:00:00 8.7 10 Este 37 Noroeste 0 -- -- 89
2020-03-17 23:00:00 9 18 Este 37 Este 0 -- -- 91
2020-03-17 22:00:00 9 13 Nordeste 39 Norte 0.2 -- -- 93
2020-03-17 21:00:00 9.3 8 Este 30 Nordeste 0.2 -- -- 96
2020-03-17 20:00:00 9.5 10 Nordeste 40 Nordeste 0.2 -- -- 94
2020-03-17 19:00:00 10.1 8 Nordeste 38 Nordeste 0 -- -- 87
2020-03-17 18:00:00 11.1 8 Norte 26 Norte 0 -- -- 86
2020-03-17 17:00:00 12.7 10 Nordeste 27 Nordeste 0 -- -- 76
2020-03-17 16:00:00 11.9 10 Nordeste 27 Norte 0 -- -- 76
2020-03-17 15:00:00 12.4 8 Nordeste 24 Norte 0 -- -- 82
2020-03-17 14:00:00 12.5 14 Nordeste 37 Norte 0 -- -- 70
2020-03-17 13:00:00 11.7 11 Norte 39 Sudeste 0 -- -- 77
2020-03-17 12:00:00 11.3 8 Sudeste 41 Oeste 0 -- -- 79
2020-03-17 11:00:00 10.1 8 Nordeste 33 Norte 0.2 -- -- 84
2020-03-17 10:00:00 9.3 11 Nordeste 33 Este 0 -- -- 91
2020-03-17 09:00:00 9.5 10 Nordeste 37 Nordeste 0.2 -- -- 94
2020-03-17 08:00:00 8.4 9 Nordeste 27 Norte 0.2 -- -- 94
2020-03-17 07:00:00 8.2 7 Nordeste 29 Nordeste 0 -- -- 88
2020-03-17 06:00:00 8.4 8 Nordeste 29 Nordeste 0 -- -- 85
2020-03-17 05:00:00 8.5 9 Nordeste 25 Este 0 -- -- 87
2020-03-17 04:00:00 8.8 8 Nordeste 28 Nordeste 0 -- -- 89
2020-03-17 03:00:00 8.6 10 Nordeste 29 Nordeste 0 -- -- 83
2020-03-17 02:00:00 9.3 9 Nordeste 35 Nordeste 0 -- -- 84
2020-03-17 01:00:00 8.8 10 Norte 34 Norte 0 -- -- 86
2020-03-17 00:00:00 9.5 10 Norte 40 Nordeste 0 -- -- 87
2020-03-16 23:00:00 9.8 11 Norte 43 Norte 0 -- -- 85
2020-03-16 22:00:00 9.7 13 Norte 40 Norte 0 -- -- 85
2020-03-16 21:00:00 10 12 Norte 45 Norte 0 -- -- 84
2020-03-16 20:00:00 10.6 9 Nordeste 28 Nordeste 0 -- -- 82
2020-03-16 19:00:00 10.9 11 Norte 36 Nordeste 0 -- -- 80
2020-03-16 18:00:00 11.9 11 Norte 48 Norte 0 -- -- 77
2020-03-16 17:00:00 12.8 11 Norte 29 Noroeste 0 -- -- 76
2020-03-16 16:00:00 14.4 11 Nordeste 30 Norte 0 -- -- 66
2020-03-16 15:00:00 14.7 14 Nordeste 34 Este 0 -- -- 60
2020-03-16 14:00:00 14.5 13 Nordeste 37 Noroeste 0 -- -- 65
2020-03-16 13:00:00 13 10 Norte 44 Norte 0 -- -- 74
2020-03-16 12:00:00 13.1 11 Norte 36 Norte 0 -- -- 75
2020-03-16 11:00:00 12.3 12 Nordeste 35 Norte 0 -- -- 75
2020-03-16 10:00:00 13 10 Nordeste 35 Norte 0 -- -- 69
2020-03-16 09:00:00 10.7 10 Nordeste 30 Norte 0 -- -- 82
2020-03-16 08:00:00 10.1 10 Nordeste 28 Noroeste 0 -- -- 84
2020-03-16 07:00:00 9.9 9 Norte 30 Noroeste 0 -- -- 85
2020-03-16 06:00:00 9.7 8 Norte 30 Nordeste 0 -- -- 87
2020-03-16 05:00:00 9.2 10 Norte 28 Norte 0 -- -- 85
2020-03-16 04:00:00 9.6 9 Norte 34 Norte 0 -- -- 84
2020-03-16 03:00:00 9.5 11 Norte 33 Norte 0 -- -- 82
2020-03-16 02:00:00 9.7 10 Nordeste 28 Nordeste 0.2 -- -- 87
2020-03-16 01:00:00 9.9 10 Nordeste 29 Oeste 0.2 -- -- 88
2020-03-16 00:00:00 10.1 9 Nordeste 38 Nordeste 0 -- -- 79
2020-03-15 23:00:00 9.8 11 Nordeste 33 Este 0 -- -- 79
2020-03-15 22:00:00 10.1 9 Nordeste 30 Este 0 -- -- 81
2020-03-15 21:00:00 10.2 11 Nordeste 41 Nordeste 0 -- -- 84
2020-03-15 20:00:00 10.1 10 Nordeste 27 Nordeste 0 -- -- 79
2020-03-15 19:00:00 10.7 8 Nordeste 26 Norte 0 -- -- 73
2020-03-15 18:00:00 12.4 10 Nordeste 32 Este 0 -- -- 69
2020-03-15 17:00:00 12.3 13 Nordeste 39 Nordeste 0 -- -- 76
2020-03-15 16:00:00 13.5 14 Norte 34 Norte 0 -- -- 64
2020-03-15 15:00:00 12.6 12 Nordeste 28 Norte 0 -- -- 68
2020-03-15 14:00:00 12.1 11 Nordeste 28 Norte 0 -- -- 78
2020-03-15 13:00:00 12.6 8 Norte 23 Noroeste 0 -- -- 73
2020-03-15 12:00:00 12.7 8 Noroeste 30 Norte 0 -- -- 69
2020-03-15 11:00:00 12.2 9 Nordeste 26 Nordeste 0 -- -- 72
2020-03-15 10:00:00 11.8 9 Nordeste 26 Norte 0 -- -- 69
2020-03-15 09:00:00 10.5 7 Nordeste 24 Nordeste 0 -- -- 79
2020-03-15 08:00:00 9.6 6 Norte 16 Nordeste 0 -- -- 84
2020-03-15 07:00:00 9.5 7 Nordeste 18 Este 0 -- -- 81
2020-03-15 06:00:00 9.4 5 Norte 24 Norte 0 -- -- 82
2020-03-15 05:00:00 9.5 7 Este 21 Sudeste 0 -- -- 82
2020-03-15 04:00:00 9.5 6 Nordeste 18 Sudeste 0 -- -- 82
2020-03-15 03:00:00 9.7 9 Este 22 Sudeste 0 -- -- 90
2020-03-15 02:00:00 9.9 7 Este 22 Sudeste 0 -- -- 90
2020-03-15 01:00:00 9.9 7 Este 16 Este 0 -- -- 89
2020-03-15 00:00:00 10 6 Este 16 Norte 0 -- -- 86
2020-03-14 23:00:00 9.7 6 Norte 19 Este 0 -- -- 82
2020-03-14 22:00:00 10.1 8 Nordeste 19 Nordeste 0 -- -- 78
2020-03-14 21:00:00 10.9 6 Nordeste 20 Nordeste 0 -- -- 80
2020-03-14 20:00:00 10.8 8 Este 20 Este 0 -- -- 87
2020-03-14 19:00:00 11.8 7 Este 17 Este 0 -- -- 75
2020-03-14 18:00:00 13.5 7 Nordeste 22 Sudeste 0 -- -- 67
2020-03-14 17:00:00 15.4 4 Sudeste 20 Nordeste 0 -- -- 58
2020-03-14 16:00:00 16 9 Norte 23 Norte 0 -- -- 57
2020-03-14 15:00:00 16.3 9 Oeste 24 Oeste 0 -- -- 58
2020-03-14 14:00:00 16.6 6 Noroeste 18 Noroeste 0 -- -- 57
2020-03-14 13:00:00 13.8 6 Noroeste 20 Sudeste 0 -- -- 72
2020-03-14 12:00:00 13 6 Norte 18 Norte 0 -- -- 78
2020-03-14 11:00:00 13.1 7 Oeste 18 Sudeste 0 -- -- 79
2020-03-14 10:00:00 13.5 9 Este 16 Este 0 -- -- 75
2020-03-14 09:00:00 13.9 4 Norte 17 Este 0 -- -- 58
2020-03-14 08:00:00 12.2 7 Oeste 19 Norte 0 -- -- 56
2020-03-14 07:00:00 12.4 5 Nordeste 14 Noroeste 0 -- -- 33
2020-03-14 06:00:00 12.7 4 Oeste 15 Oeste 0 -- -- 27
2020-03-14 05:00:00 11.3 6 Noroeste 16 Noroeste 0 -- -- 36
2020-03-14 04:00:00 12.6 6 Noroeste 23 Noroeste 0 -- -- 48
2020-03-14 03:00:00 10.4 5 Norte 9 Norte 0 -- -- 26
2020-03-14 02:00:00 10.6 6 Norte 8 Noroeste 0 -- -- 26
2020-03-14 01:00:00 11.2 6 Norte 8 Norte 0 -- -- 25
2020-03-14 00:00:00 11.7 6 Norte 9 Norte 0 -- -- 25
2020-03-13 23:00:00 11.9 7 Norte 9 Norte 0 -- -- 25
2020-03-13 22:00:00 12.5 7 Norte 9 Norte 0 -- -- 25
2020-03-13 21:00:00 13.5 5 Norte 10 Norte 0 -- -- 22
2020-03-13 20:00:00 15 3 Norte 8 Noroeste 0 -- -- 20
2020-03-13 19:00:00 18.6 2 Noroeste 11 Sudeste 0 -- -- 18
2020-03-13 18:00:00 20.3 5 Este 12 Este 0 -- -- 15
2020-03-13 17:00:00 20.6 7 Este 14 Este 0 -- -- 14
2020-03-13 16:00:00 20.4 5 Este 17 Este 0 -- -- 13
2020-03-13 15:00:00 19.8 8 Este 17 Este 0 -- -- 14
2020-03-13 14:00:00 20.8 6 Nordeste 23 Sudeste 0 -- -- 15
2020-03-13 13:00:00 20.9 9 Este 21 Sudeste 0 -- -- 14
2020-03-13 12:00:00 20.9 8 Este 16 Este 0 -- -- 14
2020-03-13 11:00:00 21 6 Este 22 Sudeste 0 -- -- 13
2020-03-13 10:00:00 20 8 Este 16 Nordeste 0 -- -- 21
2020-03-13 09:00:00 18.5 3 Nordeste 11 Nordeste 0 -- -- 16
2020-03-13 08:00:00 15.5 4 Norte 14 Nordeste 0 -- -- 17
2020-03-13 07:00:00 15.5 5 Norte 13 Nordeste 0 -- -- 14
2020-03-13 06:00:00 16.7 6 Nordeste 20 Nordeste 0 -- -- 13
2020-03-13 05:00:00 16.1 8 Norte 16 Nordeste 0 -- -- 14
2020-03-13 04:00:00 14.7 6 Norte 13 Nordeste 0 -- -- 15
2020-03-13 03:00:00 14 6 Norte 13 Nordeste 0 -- -- 17
2020-03-13 02:00:00 14.2 6 Noroeste 15 Noroeste 0 -- -- 18
2020-03-13 01:00:00 13.8 6 Norte 13 Noroeste 0 -- -- 20
2020-03-13 00:00:00 14.2 6 Norte 10 Norte 0 -- -- 19
2020-03-12 23:00:00 15.3 6 Norte 17 Noroeste 0 -- -- 19
2020-03-12 22:00:00 14.3 7 Norte 12 Norte 0 -- -- 22
2020-03-12 21:00:00 14.6 8 Norte 12 Norte 0 -- -- 20
2020-03-12 20:00:00 16.2 7 Norte 10 Norte 0 -- -- 19
2020-03-12 19:00:00 20.2 4 Norte 9 Nordeste 0 -- -- 15
2020-03-12 18:00:00 21.8 5 Nordeste 15 Sudeste 0 -- -- 14
2020-03-12 17:00:00 21.9 6 Este 19 Este 0 -- -- 14
2020-03-12 16:00:00 22.1 7 Este 19 Este 0 -- -- 12
2020-03-12 15:00:00 22 10 Este 22 Este 0 -- -- 16
2020-03-12 14:00:00 22.5 11 Este 23 Sudeste 0 -- -- 13
2020-03-12 13:00:00 22.4 13 Este 27 Sudeste 0 -- -- 12
2020-03-12 12:00:00 22.3 10 Este 26 Este 0 -- -- 9
2020-03-12 11:00:00 22.3 13 Sudeste 27 Este 0 -- -- 10
2020-03-12 10:00:00 21.4 10 Este 26 Sudeste 0 -- -- 10
2020-03-12 09:00:00 19.8 10 Este 19 Sudeste 0 -- -- 11
2020-03-12 08:00:00 15.5 4 Este 12 Sudeste 0 -- -- 15
2020-03-12 07:00:00 13.3 4 Norte 11 Nordeste 0 -- -- 17
2020-03-12 06:00:00 15.2 4 Nordeste 12 Este 0 -- -- 14
2020-03-12 05:00:00 15.7 4 Norte 15 Nordeste 0 -- -- 11
2020-03-12 04:00:00 15.3 6 Este 19 Sur 0 -- -- 10
2020-03-12 03:00:00 14.5 3 Norte 11 Norte 0 -- -- 9
2020-03-12 02:00:00 14.6 5 Norte 14 Norte 0 -- -- 9
2020-03-12 01:00:00 15 5 Norte 14 Noroeste 0 -- -- 9
2020-03-12 00:00:00 15.4 6 Norte 14 Nordeste 0 -- -- 10
2020-03-11 23:00:00 14.3 6 Norte 20 Nordeste 0 -- -- 11
2020-03-11 22:00:00 13.7 6 Norte 12 Norte 0 -- -- 12
2020-03-11 21:00:00 13.6 5 Norte 11 Norte 0 -- -- 17
2020-03-11 20:00:00 14.5 6 Norte 10 Norte 0 -- -- 20
2020-03-11 19:00:00 18.6 4 Norte 9 Nordeste 0 -- -- 19
2020-03-11 18:00:00 20.8 4 Nordeste 13 Este 0 -- -- 19
2020-03-11 17:00:00 21.1 7 Este 16 Este 0 -- -- 19
2020-03-11 16:00:00 21.4 10 Este 19 Este 0 -- -- 16
2020-03-11 15:00:00 22.1 12 Sudeste 20 Sudeste 0 -- -- 17
2020-03-11 14:00:00 22.3 8 Este 17 Sudeste 0 -- -- 10
2020-03-11 13:00:00 22.8 9 Este 19 Este 0 -- -- 9
2020-03-11 12:00:00 22.3 9 Este 21 Este 0 -- -- 9
2020-03-11 11:00:00 20.4 11 Este 18 Sudeste 0 -- -- 8
2020-03-11 10:00:00 19.5 5 Nordeste 14 Este 0 -- -- 13
2020-03-11 09:00:00 18.5 5 Nordeste 12 Este 0 -- -- 9
2020-03-11 08:00:00 12.6 5 Norte 10 Norte 0 -- -- 10
2020-03-11 07:00:00 12.5 6 Norte 10 Norte 0 -- -- 9
2020-03-11 06:00:00 13.3 6 Norte 10 Norte 0 -- -- 15
2020-03-11 05:00:00 14.1 5 Norte 8 Norte 0 -- -- 18
2020-03-11 04:00:00 15.3 5 Norte 12 Norte 0 -- -- 17
2020-03-11 03:00:00 15.5 4 Norte 12 Norte 0 -- -- 7
2020-03-11 02:00:00 16 6 Norte 21 Norte 0 -- -- 2
2020-03-11 01:00:00 17.4 8 Norte 17 Norte 0 -- -- 5
2020-03-11 00:00:00 17.9 8 Nordeste 18 Norte 0 -- -- 12
2020-03-10 23:00:00 17.1 7 Norte 22 Noroeste 0 -- -- 15
2020-03-10 22:00:00 15.8 5 Norte 18 Norte 0 -- -- 15
2020-03-10 21:00:00 16.3 8 Norte 23 Norte 0 -- -- 16
2020-03-10 20:00:00 17.1 8 Norte 15 Norte 0 -- -- 14
2020-03-10 19:00:00 19.5 5 Nordeste 15 Este 0 -- -- 13
2020-03-10 18:00:00 20.8 7 Este 18 Este 0 -- -- 12
2020-03-10 17:00:00 21.4 6 Este 17 Sudeste 0 -- -- 11
2020-03-10 16:00:00 20.6 8 Este 20 Este 0 -- -- 13
2020-03-10 15:00:00 20.9 6 Este 21 Este 0 -- -- 15
2020-03-10 14:00:00 21.6 10 Este 24 Sudeste 0 -- -- 11
2020-03-10 13:00:00 20.7 9 Este 28 Sudeste 0 -- -- 16
2020-03-10 12:00:00 20.2 13 Este 33 Sudeste 0 -- -- 9
2020-03-10 11:00:00 20.2 12 Este 30 Sudeste 0 -- -- 15
2020-03-10 10:00:00 20 13 Este 27 Nordeste 0 -- -- 14
2020-03-10 09:00:00 20.6 9 Este 22 Este 0 -- -- 17
2020-03-10 08:00:00 18.8 7 Norte 25 Sur 0 -- -- 16
2020-03-10 07:00:00 18.2 8 Sur 25 Nordeste 0 -- -- 17
2020-03-10 06:00:00 18.1 8 Sudoeste 17 Este 0 -- -- 17
2020-03-10 05:00:00 17.9 7 Sudoeste 20 Sur 0 -- -- 18
2020-03-10 04:00:00 17.5 7 Sudoeste 18 Sudeste 0 -- -- 19
2020-03-10 03:00:00 16.6 7 Oeste 15 Noroeste 0 -- -- 20
2020-03-10 02:00:00 17.2 5 Noroeste 22 Oeste 0 -- -- 20
2020-03-10 01:00:00 17.7 8 Sudoeste 37 Sudeste 0 -- -- 20
2020-03-10 00:00:00 17.8 12 Sur 32 Sudeste 0 -- -- 21
2020-03-09 23:00:00 17.9 15 Sur 38 Sudeste 0 -- -- 22
2020-03-09 22:00:00 17.1 9 Este 43 Sudeste 0 -- -- 26
2020-03-09 21:00:00 17 10 Sur 32 Sudeste 0 -- -- 21
2020-03-09 20:00:00 17.5 11 Sur 33 Sudeste 0 -- -- 18
2020-03-09 19:00:00 18.3 7 Este 23 Nordeste 0 -- -- 17
2020-03-09 18:00:00 19.3 7 Este 17 Nordeste 0 -- -- 19
2020-03-09 17:00:00 19.4 9 Este 22 Sudeste 0 -- -- 21
2020-03-09 16:00:00 19.4 11 Este 27 Este 0 -- -- 23
2020-03-09 15:00:00 19.6 14 Este 35 Sudeste 0 -- -- 21
2020-03-09 14:00:00 20 15 Este 39 Sudeste 0 -- -- 21
2020-03-09 13:00:00 19.9 15 Este 45 Este 0 -- -- 22
2020-03-09 12:00:00 19.8 15 Este 45 Sudeste 0 -- -- 26
2020-03-09 11:00:00 19.5 14 Sudeste 41 Este 0 -- -- 27
2020-03-09 10:00:00 19.5 10 Este 37 Sudeste 0 -- -- 24
2020-03-09 09:00:00 18.4 8 Sudeste 60 Este 0 -- -- 25
2020-03-09 08:00:00 17.4 9 Sudeste 35 Sur 0 -- -- 25
2020-03-09 07:00:00 17 8 Sudeste 24 Sur 0 -- -- 26
2020-03-09 06:00:00 17.5 8 Sudoeste 24 Oeste 0 -- -- 20
2020-03-09 05:00:00 19.1 11 Sudoeste 34 Sudeste 0 -- -- 15
2020-03-09 04:00:00 19 9 Oeste 26 Sur 0 -- -- 14
2020-03-09 03:00:00 19.5 10 Sur 30 Sur 0 -- -- 14
2020-03-09 02:00:00 19.8 13 Sur 33 Sur 0 -- -- 13
2020-03-09 01:00:00 19.5 11 Sur 43 Sudeste 0 -- -- 15
2020-03-09 00:00:00 19.7 15 Sur 50 Sudeste 0 -- -- 14
2020-03-08 23:00:00 19.4 14 Sudeste 51 Sudeste 0 -- -- 15
2020-03-08 22:00:00 18.8 10 Sur 37 Sur 0 -- -- 16
2020-03-08 21:00:00 18.8 9 Sur 38 Sudeste 0 -- -- 13
2020-03-08 20:00:00 18.5 6 Este 22 Este 0 -- -- 22
2020-03-08 19:00:00 19.1 4 Este 17 Nordeste 0 -- -- 21
2020-03-08 18:00:00 19.7 6 Este 24 Este 0 -- -- 21
2020-03-08 17:00:00 19.7 10 Este 37 Sudeste 0 -- -- 24
2020-03-08 16:00:00 19.6 13 Este 41 Sudeste 0 -- -- 26
2020-03-08 15:00:00 19.6 14 Este 44 Sudeste 0 -- -- 27
2020-03-08 14:00:00 20.5 13 Sudeste 40 Sudeste 0 -- -- 24
2020-03-08 13:00:00 20.7 17 Sudeste 43 Sudeste 0 -- -- 24
2020-03-08 12:00:00 21 12 Este 34 Nordeste 0 -- -- 26
2020-03-08 11:00:00 21.5 11 Este 29 Sudeste 0 -- -- 20
2020-03-08 10:00:00 21.7 11 Sudeste 23 Sudeste 0 -- -- 18
2020-03-08 09:00:00 19.9 8 Nordeste 17 Nordeste 0 -- -- 19
2020-03-08 08:00:00 14 4 Norte 12 Norte 0 -- -- 27
2020-03-08 07:00:00 11.6 7 Norte 12 Norte 0 -- -- 31
2020-03-08 06:00:00 11.5 8 Norte 10 Norte 0 -- -- 32
2020-03-08 05:00:00 11.7 7 Norte 12 Norte 0 -- -- 30
2020-03-08 04:00:00 11.5 7 Norte 11 Norte 0 -- -- 29
2020-03-08 03:00:00 11.4 8 Norte 11 Norte 0 -- -- 28
2020-03-08 02:00:00 11.6 8 Norte 11 Noroeste 0 -- -- 28
2020-03-08 01:00:00 12.2 6 Norte 12 Noroeste 0 -- -- 30
2020-03-08 00:00:00 12.6 8 Norte 12 Norte 0 -- -- 31
2020-03-07 23:00:00 12.2 7 Norte 10 Norte 0 -- -- 22
2020-03-07 22:00:00 12.3 7 Norte 11 Norte 0 -- -- 18
2020-03-07 21:00:00 12.2 6 Norte 11 Noroeste 0 -- -- 15
2020-03-07 20:00:00 13.6 8 Norte 10 Norte 0 -- -- 12
2020-03-07 19:00:00 17.7 5 Norte 12 Este 0 -- -- 10
2020-03-07 18:00:00 21 5 Nordeste 13 Este 0 -- -- 5
2020-03-07 17:00:00 20 5 Este 17 Este 0 -- -- 18
2020-03-07 16:00:00 19.6 10 Este 21 Este 0 -- -- 17
2020-03-07 15:00:00 19.8 9 Este 20 Sudeste 0 -- -- 25
2020-03-07 14:00:00 17 10 Sudeste 17 Sudeste 0 -- -- 60
2020-03-07 13:00:00 16.6 8 Sudeste 20 Sudeste 0 -- -- 62
2020-03-07 12:00:00 14.8 8 Este 24 Nordeste 0 -- -- 68
2020-03-07 11:00:00 14.6 10 Sudeste 24 Nordeste 0 -- -- 69
2020-03-07 10:00:00 14.5 10 Este 26 Nordeste 0 -- -- 62
2020-03-07 09:00:00 13 10 Este 24 Nordeste 0 -- -- 68
2020-03-07 08:00:00 8.5 2 Nordeste 21 Noroeste 0 -- -- 61
2020-03-07 07:00:00 8.4 10 Norte 21 Norte 0 -- -- 61
2020-03-07 06:00:00 7.1 4 Norte 10 Norte 0 -- -- 73
2020-03-07 05:00:00 8.3 4 Norte 13 Norte 0 -- -- 68
2020-03-07 04:00:00 8 5 Norte 13 Norte 0 -- -- 66
2020-03-07 03:00:00 8 5 Norte 11 Este 0 -- -- 36
2020-03-07 02:00:00 8.7 6 Noroeste 12 Norte 0 -- -- 31
2020-03-07 01:00:00 9 7 Norte 14 Norte 0 -- -- 45
2020-03-07 00:00:00 9 4 Noroeste 13 Noroeste 0 -- -- 53
2020-03-06 23:00:00 9.1 5 Norte 15 Norte 0 -- -- 57
2020-03-06 22:00:00 10.8 6 Nordeste 22 Norte 0 -- -- 74
2020-03-06 21:00:00 12.2 4 Sur 23 Norte 0 -- -- 71
2020-03-06 20:00:00 14.3 7 Oeste 26 Norte 0 -- -- 34
2020-03-06 19:00:00 12.5 13 Norte 36 Norte 0 -- -- 56
2020-03-06 18:00:00 14.8 14 Norte 39 Norte 0 -- -- 61
2020-03-06 17:00:00 15.8 6 Oeste 25 Este 0 -- -- 60
2020-03-06 16:00:00 15.2 11 Nordeste 28 Nordeste 0 -- -- 66
2020-03-06 15:00:00 15.8 12 Nordeste 32 Norte 0 -- -- 64
2020-03-06 14:00:00 15.1 9 Nordeste 31 Nordeste 0 -- -- 69
2020-03-06 13:00:00 14.7 13 Nordeste 43 Nordeste 0 -- -- 69
2020-03-06 12:00:00 14.1 15 Este 40 Norte 0 -- -- 70
2020-03-06 11:00:00 13.1 13 Norte 36 Norte 0 -- -- 80
2020-03-06 10:00:00 10.8 10 Este 33 Este 0 -- -- 94
2020-03-06 09:00:00 11.1 8 Este 36 Noroeste 0 -- -- 90
2020-03-06 08:00:00 11.3 11 Nordeste 36 Este 0 -- -- 84
2020-03-06 07:00:00 11.3 10 Nordeste 31 Nordeste 0 -- -- 92
2020-03-06 06:00:00 11.9 12 Nordeste 37 Norte 0 -- -- 87
2020-03-06 05:00:00 12.3 10 Norte 35 Norte 0 -- -- 83
2020-03-06 04:00:00 12 9 Este 35 Este 0 -- -- 83
2020-03-06 03:00:00 12 11 Nordeste 49 Norte 0 -- -- 81
2020-03-06 02:00:00 11.8 18 Norte 53 Norte 0 -- -- 78
2020-03-06 01:00:00 11.7 16 Norte 42 Norte 0 -- -- 83
2020-03-06 00:00:00 12 18 Norte 42 Norte 0 -- -- 80
2020-03-05 23:00:00 12.8 12 Norte 33 Norte 0 -- -- 70
2020-03-05 22:00:00 15.1 15 Norte 32 Norte 0 -- -- 54
2020-03-05 21:00:00 16.4 12 Este 27 Nordeste 0 -- -- 36
2020-03-05 20:00:00 15.9 9 Este 31 Sudeste 0 -- -- 34
2020-03-05 19:00:00 17.4 8 Este 19 Norte 0 -- -- 41
2020-03-05 18:00:00 21.4 8 Este 22 Este 0 -- -- 30
2020-03-05 17:00:00 21.7 8 Este 23 Sudeste 0 -- -- 29
2020-03-05 16:00:00 21.4 10 Este 22 Este 0 -- -- 35
2020-03-05 15:00:00 21.6 9 Sudeste 21 Sudeste 0 -- -- 33
2020-03-05 14:00:00 20.9 8 Este 19 Sudeste 0 -- -- 38
2020-03-05 13:00:00 20.7 13 Sudeste 23 Este 0 -- -- 51
2020-03-05 12:00:00 20.7 11 Este 24 Este 0 -- -- 43
2020-03-05 11:00:00 20.2 13 Este 26 Sudeste 0 -- -- 38
2020-03-05 10:00:00 21.5 11 Este 26 Este 0 -- -- 31
2020-03-05 09:00:00 21.8 6 Norte 22 Nordeste 0 -- -- 25
2020-03-05 08:00:00 15.4 0 Calma 7 Noroeste 0 -- -- 34
2020-03-05 07:00:00 14.6 3 Norte 8 Norte 0 -- -- 37
2020-03-05 06:00:00 14.7 5 Norte 13 Norte 0 -- -- 35
2020-03-05 05:00:00 14.4 5 Norte 8 Noroeste 0 -- -- 35
2020-03-05 04:00:00 14.6 5 Noroeste 10 Norte 0 -- -- 33
2020-03-05 03:00:00 15.1 7 Norte 10 Noroeste 0 -- -- 32
2020-03-05 02:00:00 14.7 6 Norte 11 Norte 0 -- -- 32
2020-03-05 01:00:00 15.7 6 Norte 9 Norte 0 -- -- 30
2020-03-05 00:00:00 16.2 7 Norte 10 Norte 0 -- -- 30
2020-03-04 23:00:00 16.5 6 Norte 11 Noroeste 0 -- -- 30
2020-03-04 22:00:00 17.5 5 Norte 9 Norte 0 -- -- 28
2020-03-04 21:00:00 17.7 6 Norte 12 Norte 0 -- -- 28
2020-03-04 20:00:00 18.9 5 Norte 10 Noroeste 0 -- -- 26
2020-03-04 19:00:00 20.6 3 Nordeste 10 Nordeste 0 -- -- 24
2020-03-04 18:00:00 21.6 2 Sur 15 Sudeste 0 -- -- 32
2020-03-04 17:00:00 23.6 7 Este 18 Sudeste 0 -- -- 26
2020-03-04 16:00:00 24.2 9 Este 17 Sudeste 0 -- -- 19
2020-03-04 15:00:00 24.8 8 Este 18 Sudeste 0 -- -- 17
2020-03-04 14:00:00 25 7 Este 18 Sudeste 0 -- -- 17
2020-03-04 13:00:00 24.5 11 Este 19 Este 0 -- -- 18
2020-03-04 12:00:00 24.2 11 Sudeste 20 Sudeste 0 -- -- 19
2020-03-04 11:00:00 23 9 Este 18 Sudeste 0 -- -- 20
2020-03-04 10:00:00 21.7 6 Sudeste 11 Sudeste 0 -- -- 24
2020-03-04 09:00:00 19.2 6 Sudeste 10 Este 0 -- -- 32
2020-03-04 08:00:00 12.7 3 Norte 10 Norte 0 -- -- 43
2020-03-04 07:00:00 12.6 5 Norte 11 Noroeste 0 -- -- 41
2020-03-04 06:00:00 12.4 6 Norte 10 Nordeste 0 -- -- 42
2020-03-04 05:00:00 12.6 6 Norte 11 Norte 0 -- -- 44
2020-03-04 04:00:00 13.3 5 Norte 13 Norte 0 -- -- 44
2020-03-04 03:00:00 15.1 5 Nordeste 18 Este 0 -- -- 42
2020-03-04 02:00:00 16 6 Nordeste 16 Nordeste 0 -- -- 40
2020-03-04 01:00:00 15.2 5 Nordeste 15 Nordeste 0 -- -- 42
2020-03-04 00:00:00 14.5 5 Norte 11 Norte 0 -- -- 40
2020-03-03 23:00:00 14.4 7 Norte 10 Norte 0 -- -- 36
2020-03-03 22:00:00 14.9 6 Norte 12 Norte 0 -- -- 35
2020-03-03 21:00:00 16.1 4 Norte 12 Norte 0 -- -- 29
2020-03-03 20:00:00 18.8 5 Nordeste 17 Este 0 -- -- 20
2020-03-03 19:00:00 20.1 4 Nordeste 14 Nordeste 0 -- -- 20
2020-03-03 18:00:00 22 8 Este 23 Sudeste 0 -- -- 24
2020-03-03 17:00:00 22.4 11 Este 20 Este 0 -- -- 20
2020-03-03 16:00:00 22.4 9 Este 18 Este 0 -- -- 21
2020-03-03 15:00:00 22.9 9 Este 17 Este 0 -- -- 21
2020-03-03 14:00:00 23.1 6 Sudeste 17 Sudeste 0 -- -- 21
2020-03-03 13:00:00 22 8 Sudeste 18 Sudeste 0 -- -- 25
2020-03-03 12:00:00 20.1 10 Este 22 Este 0 -- -- 42
2020-03-03 11:00:00 21.1 9 Este 19 Este 0 -- -- 34
2020-03-03 10:00:00 22 9 Este 20 Sudeste 0 -- -- 21
2020-03-03 09:00:00 20.2 5 Este 17 Este 0 -- -- 18
2020-03-03 08:00:00 13 6 Norte 15 Norte 0 -- -- 30
2020-03-03 07:00:00 12.9 6 Norte 16 Norte 0 -- -- 33
2020-03-03 06:00:00 12.7 6 Norte 18 Norte 0 -- -- 30
2020-03-03 05:00:00 12.1 6 Norte 16 Nordeste 0 -- -- 33
2020-03-03 04:00:00 10.9 5 Norte 9 Norte 0 -- -- 41
2020-03-03 03:00:00 11 7 Norte 11 Norte 0 -- -- 38
2020-03-03 02:00:00 9.7 6 Norte 10 Norte 0 -- -- 45
2020-03-03 01:00:00 9.1 4 Nordeste 10 Nordeste 0 -- -- 64
2020-03-03 00:00:00 10.3 5 Nordeste 13 Este 0 -- -- 86
2020-03-02 23:00:00 9.9 3 Noroeste 7 Noroeste 0 -- -- 51
2020-03-02 22:00:00 9.7 3 Noroeste 8 Nordeste 0 -- -- 51
2020-03-02 21:00:00 10.2 5 Norte 14 Norte 0 -- -- 51
2020-03-02 20:00:00 10.9 2 Norte 7 Norte 0 -- -- 69
2020-03-02 19:00:00 13.1 2 Sur 17 Este 0 -- -- 78
2020-03-02 18:00:00 14.3 8 Este 17 Este 0 -- -- 76
2020-03-02 17:00:00 16.3 9 Sudeste 17 Sudeste 0 -- -- 66
2020-03-02 16:00:00 17.6 9 Sudeste 17 Sudeste 0 -- -- 61
2020-03-02 15:00:00 16.4 10 Sudeste 23 Este 0 -- -- 69
2020-03-02 14:00:00 15.9 13 Este 26 Nordeste 0 -- -- 69
2020-03-02 13:00:00 16.3 11 Este 26 Este 0 -- -- 68
2020-03-02 12:00:00 16 12 Sudeste 25 Este 0 -- -- 70
2020-03-02 11:00:00 15.4 7 Sudeste 21 Este 0 -- -- 74
2020-03-02 10:00:00 14.7 12 Este 25 Este 0 -- -- 72
2020-03-02 09:00:00 12 5 Este 11 Sudeste 0 -- -- 88
2020-03-02 08:00:00 9.8 3 Nordeste 9 Este 0 -- -- 84
2020-03-02 07:00:00 11.9 4 Este 16 Norte 0 -- -- 72
2020-03-02 06:00:00 13.1 5 Nordeste 24 Norte 0 -- -- 38
2020-03-02 05:00:00 13.9 8 Norte 26 Norte 0 -- -- 42
2020-03-02 04:00:00 13.7 5 Este 18 Nordeste 0 -- -- 49
2020-03-02 03:00:00 13.9 4 Sudoeste 14 Sur 0 -- -- 54
2020-03-02 02:00:00 14.5 3 Nordeste 18 Norte 0 -- -- 53
2020-03-02 01:00:00 15.4 5 Norte 21 Nordeste 0 -- -- 50
2020-03-02 00:00:00 14.9 6 Norte 21 Norte 0 -- -- 48